Time,TemperatureF,DewpointF,PressureIn,WindDirection,WindDirectionDegrees,WindSpeedMPH,WindSpeedGustMPH,Humidity,HourlyPrecipIn,Conditions,Clouds,dailyrainin,SoftwareType,DateUTC
2013-02-10 09:20:00,48.2,24.4,30.19,NNE,14,0.0,0.0,39,0.00,,---,0.00,VWS V14.01,2013-02-10 17:20:00,
2013-02-10 09:25:00,48.4,24.6,30.19,ESE,112,0.0,4.0,39,0.00,,---,0.00,VWS V14.01,2013-02-10 17:25:00,
2013-02-10 09:30:00,48.7,24.9,30.19,East,93,5.4,5.4,39,0.00,,---,0.00,VWS V14.01,2013-02-10 17:30:00,
2013-02-10 09:35:00,49.3,25.4,30.17,SSE,162,0.0,5.4,39,0.00,,---,0.00,VWS V14.01,2013-02-10 17:35:00,
2013-02-10 09:40:00,49.8,25.9,30.17,NE,52,3.1,3.6,39,0.00,,---,0.00,VWS V14.01,2013-02-10 17:40:00,
2013-02-10 09:45:00,50.0,25.4,30.17,North,0,4.9,5.4,38,0.00,,---,0.00,VWS V14.01,2013-02-10 17:45:00,
2013-02-10 09:50:00,50.5,25.2,30.17,WSW,243,0.0,6.3,37,0.00,,---,0.00,VWS V14.01,2013-02-10 17:50:00,
2013-02-10 09:55:00,51.1,25.7,30.17,NNW,340,8.1,8.1,37,0.00,,---,0.00,VWS V14.01,2013-02-10 17:55:00,
2013-02-10 10:00:00,51.1,25.7,30.17,NNE,22,2.7,8.3,37,0.00,,---,0.00,VWS V14.01,2013-02-10 18:00:00,
2013-02-10 10:05:00,50.9,25.6,30.17,North,357,3.1,7.6,37,0.00,,---,0.00,VWS V14.01,2013-02-10 18:05:00,
2013-02-10 10:10:00,51.1,25.7,30.17,North,9,2.2,5.8,37,0.00,,---,0.00,VWS V14.01,2013-02-10 18:10:00,
2013-02-10 10:15:00,51.4,26.7,30.17,NW,307,0.0,4.0,38,0.00,,---,0.00,VWS V14.01,2013-02-10 18:15:00,
2013-02-10 10:20:00,48.2,24.4,30.19,NNE,14,0.0,0.0,39,0.00,,---,0.00,VWS V14.01,2013-02-10 18:20:00,
2013-02-10 10:21:00,48.2,24.4,30.19,NNE,14,0.0,0.0,39,0.00,,---,0.00,VWS V14.01,2013-02-10 18:21:00,
2013-02-10 10:25:00,52.3,26.2,30.16,NE,55,2.7,5.8,36,0.00,,---,0.00,VWS V14.01,2013-02-10 18:25:00,
2013-02-10 10:30:00,48.7,24.9,30.19,East,93,5.4,5.4,39,0.00,,---,0.00,VWS V14.01,2013-02-10 18:30:00,
2013-02-10 10:35:00,49.3,25.4,30.16,SSE,162,0.0,5.4,39,0.00,,---,0.00,VWS V14.01,2013-02-10 18:35:00,
2013-02-10 10:40:00,49.8,25.9,30.17,NE,52,3.1,3.6,39,0.00,,---,0.00,VWS V14.01,2013-02-10 18:40:00,
2013-02-10 10:45:00,50.0,25.4,30.16,North,0,4.9,5.4,38,0.00,,---,0.00,VWS V14.01,2013-02-10 18:45:00,
2013-02-10 10:50:00,50.5,25.2,30.16,WSW,243,0.0,6.3,37,0.00,,---,0.00,VWS V14.01,2013-02-10 18:50:00,
2013-02-10 10:55:00,51.1,25.7,30.17,NNW,340,8.1,8.1,37,0.00,,---,0.00,VWS V14.01,2013-02-10 18:55:00,
2013-02-10 11:00:00,51.1,25.7,30.16,NNE,22,2.7,8.3,37,0.00,,---,0.00,VWS V14.01,2013-02-10 19:00:00,
2013-02-10 11:05:00,50.9,25.6,30.17,North,357,3.1,7.6,37,0.00,,---,0.00,VWS V14.01,2013-02-10 19:05:00,
2013-02-10 11:10:00,51.1,25.7,30.16,North,9,2.2,5.8,37,0.00,,---,0.00,VWS V14.01,2013-02-10 19:10:00,
2013-02-10 11:15:00,51.4,26.7,30.17,NW,307,0.0,4.0,38,0.00,,---,0.00,VWS V14.01,2013-02-10 19:15:00,
2013-02-10 11:20:00,52.2,26.7,30.16,SE,125,2.7,3.6,37,0.00,,---,0.00,VWS V14.01,2013-02-10 19:20:00,
2013-02-10 11:25:00,52.3,26.2,30.16,NE,55,2.7,5.8,36,0.00,,---,0.00,VWS V14.01,2013-02-10 19:25:00,